TimeAKDT,TemperatureF,Dew PointF,Humidity,Sea Level PressureIn,VisibilityMPH,Wind Direction,Wind SpeedMPH,Gust SpeedMPH,PrecipitationIn,Events,Conditions,WindDirDegrees,DateUTC
12:53 AM,-2.9,-8.0,79,30.57,10.0,NE,3.5,-,N/A,,Clear,40,2012-10-23 08:53:00
1:53 AM,-5.1,-9.9,80,30.58,10.0,NNE,4.6,-,N/A,,Scattered Clouds,30,2012-10-23 09:53:00
2:07 AM,-4.0,-7.6,85,30.53,10.0,NE,4.6,-,N/A,,Scattered Clouds,40,2012-10-23 10:07:00
2:53 AM,-5.1,-9.0,83,30.58,10.0,Calm,Calm,-,N/A,,Mostly Cloudy,0,2012-10-23 10:53:00
3:53 AM,-2.0,-6.0,83,30.58,10.0,Calm,Calm,-,N/A,,Mostly Cloudy,0,2012-10-23 11:53:00
4:53 AM,-2.0,-7.1,79,30.60,10.0,Calm,Calm,-,N/A,,Mostly Cloudy,0,2012-10-23 12:53:00
5:53 AM,-4.0,-8.0,83,30.61,10.0,Calm,Calm,-,N/A,,Mostly Cloudy,0,2012-10-23 13:53:00
6:53 AM,-2.2,-7.6,78,30.58,10.0,Calm,Calm,-,N/A,,Mostly Cloudy,0,2012-10-23 14:53:00
7:53 AM,-0.0,-4.0,83,30.63,3.0,Calm,Calm,-,N/A,,Mostly Cloudy,0,2012-10-23 15:53:00
8:53 AM,-0.0,-2.9,88,30.64,3.0,NNE,3.5,-,N/A,,Overcast,30,2012-10-23 16:53:00
9:53 AM,1.0,-2.0,87,30.65,3.0,NNE,4.6,-,0.00,Snow,Light Snow,20,2012-10-23 17:53:00
10:40 AM,1.4,-2.2,85,30.59,2.0,NNE,3.5,-,0.00,Snow,Light Snow,30,2012-10-23 18:40:00
10:53 AM,1.9,-2.0,83,30.64,2.0,NE,3.5,-,0.00,Snow,Light Snow,50,2012-10-23 18:53:00
11:32 AM,1.4,-0.4,92,30.60,2.0,Calm,Calm,-,0.00,Snow,Light Snow,0,2012-10-23 19:32:00
11:53 AM,1.9,-0.0,91,30.65,6.0,Calm,Calm,-,0.00,Snow,Light Snow,0,2012-10-23 19:53:00
12:53 PM,3.0,-0.0,87,30.65,10.0,Calm,Calm,-,0.00,,Scattered Clouds,0,2012-10-23 20:53:00
1:53 PM,5.0,1.9,87,30.66,10.0,South,3.5,-,N/A,,Scattered Clouds,170,2012-10-23 21:53:00
2:53 PM,6.1,3.0,87,30.66,10.0,Calm,Calm,-,N/A,,Partly Cloudy,0,2012-10-23 22:53:00
3:53 PM,7.0,3.0,84,30.66,10.0,Calm,Calm,-,N/A,,Partly Cloudy,0,2012-10-23 23:53:00
4:53 PM,7.0,1.9,80,30.65,10.0,Calm,Calm,-,N/A,,Partly Cloudy,0,2012-10-24 00:53:00
5:53 PM,5.0,1.0,84,30.65,10.0,Calm,Calm,-,N/A,,Clear,0,2012-10-24 01:53:00
6:53 PM,-0.9,-5.1,83,30.66,10.0,Calm,Calm,-,N/A,,Clear,0,2012-10-24 02:53:00
7:53 PM,-0.0,-5.1,79,30.66,10.0,Calm,Calm,-,N/A,,Clear,0,2012-10-24 03:53:00
8:53 PM,-2.9,-7.1,82,30.67,10.0,Calm,Calm,-,N/A,,Clear,0,2012-10-24 04:53:00
9:53 PM,-4.0,-8.0,83,30.67,10.0,Calm,Calm,-,N/A,,Clear,0,2012-10-24 05:53:00
10:53 PM,-5.1,-9.0,83,30.68,10.0,Calm,Calm,-,N/A,,Clear,0,2012-10-24 06:53:00
11:53 PM,-5.1,-9.0,83,30.69,10.0,Calm,Calm,-,N/A,,Clear,0,2012-10-24 07:53:00